This demonstration page uses our WeatherBlox Daily Observations layout. Learn more.

Left ArrowRight Arrow

53.62937, 11.41316

Hourly Observations for January 23, 2020

Temp ( °F °C ) Dew Point ( °F °C ) Humidity (%) Winds ( mph kmh ) Pressure ( in mb ) Visibility ( mi km ) Precip ( " mm )
6:50 am 06:50 Mostly Cloudy 39 4 37 3 93 93 W 3 6 30.51 1033 30 48 N/A
7:20 am 07:20 Mostly Cloudy 39 4 39 4 100 100 VRB 2 4 30.51 1033 30 48 N/A
7:50 am 07:50 Mostly Cloudy 39 4 39 4 100 100 W 3 6 30.51 1033 30 48 N/A
8:20 am 08:20 Mostly Cloudy 41 5 37 3 87 87 W 5 7 30.51 1033 30 48 N/A
8:50 am 08:50 Mostly Cloudy 41 5 39 4 93 93 W 3 6 30.51 1033 30 48 N/A
9:20 am 09:20 Mostly Cloudy 41 5 39 4 93 93 WSW 6 9 30.51 1033 30 48 N/A
9:50 am 09:50 Mostly Cloudy 41 5 39 4 93 93 W 6 9 30.51 1033 30 48 N/A
10:20 am 10:20 Mostly Cloudy 41 5 39 4 93 93 W 8 13 30.51 1033 30 48 N/A
10:50 am 10:50 Mostly Cloudy 43 6 39 4 87 87 W 7 11 30.48 1032 30 48 N/A
11:20 am 11:20 Mostly Cloudy 43 6 37 3 81 81 W 9 15 30.48 1032 30 48 N/A
11:50 am 11:50 Mostly Cloudy 43 6 37 3 81 81 W 9 15 30.48 1032 30 48 N/A
12:20 pm 12:20 Mostly Cloudy 43 6 37 3 81 81 W 8 13 30.48 1032 30 48 N/A
12:50 pm 12:50 Mostly Cloudy 43 6 37 3 81 81 W 6 9 30.45 1031 30 48 N/A
1:20 pm 13:20 Mostly Cloudy 43 6 36 2 76 76 W 8 13 30.45 1031 30 48 N/A
1:50 pm 13:50 Mostly Cloudy 43 6 36 2 76 76 W 8 13 30.42 1030 30 48 N/A
2:20 pm 14:20 Mostly Cloudy 43 6 36 2 76 76 WSW 9 15 30.42 1030 30 48 N/A
2:50 pm 14:50 Mostly Cloudy 43 6 36 2 76 76 W 10 17 30.42 1030 30 48 N/A
3:20 pm 15:20 Mostly Cloudy 43 6 36 2 76 76 WSW 9 15 30.39 1029 30 48 N/A
3:50 pm 15:50 Mostly Cloudy 43 6 36 2 76 76 WSW 10 17 30.39 1029 30 48 N/A
4:20 pm 16:20 Mostly Cloudy 43 6 34 1 71 71 WSW 10 17 30.39 1029 30 48 N/A
4:50 pm 16:50 Mostly Cloudy 43 6 34 1 71 71 WSW 12 19 30.36 1028 30 48 N/A
5:20 pm 17:20 Mostly Cloudy 41 5 30 -1 66 66 W 9 15 30.36 1028 30 48 N/A
5:50 pm 17:50 Mostly Cloudy 41 5 34 1 76 76 W 6 9 30.36 1028 30 48 N/A
6:50 pm 18:50 Mostly Cloudy 41 5 36 2 81 81 WSW 8 13 30.36 1028 30 48 N/A
7:20 pm 19:20 Mostly Cloudy 41 5 36 2 81 81 WSW 6 9 30.36 1028 30 48 N/A

Powered by AerisWeather